SCP
0 0 0 0 -0 -0 -0 0 -0 0 0 0 0 0 0 0 0 0 0 0 0 -0 -0 -0 -0 -0 -0 0 0 0 0 0 0 0 0 0 0 0 0 0 0 0 0
0 0 -0 -0 -0 0 0 -0 0 0 0 0 0 0 0 0 0 0 0 0 0 0 0 0 -0 0 -0 -0 -0 0 0 0 0 0 0 0 0 0 0 0 0 0 0
-0 -0 -0 -0 0 0 0 -0 -0 0 -0 0 0 0 -0 -0 -0 0 0 0 0 0 0 0 0 0 -0 -0 -0 -0 0 0 0 0 0 0 0 0 0 0 0 0 0
0 -0 -0 -0 -0 -0 -0 -0 0 -0 -0 -0 -0 -0 -0 0 0 0 0 -0 0 0 0 -0 -0 0 0 0 0 0 0 0 0 0 0 0 0 0 0 0 0 0 0
-0 -0 -0 -0 -0 -0 -0 -0 -0 0 -0 0 -0 -0 0 0 -0 -0 -0 -0 0 0 0 0 0 -0 -0 -0 0 0 0 0 0 0 0 0 0 0 0 0 0 0 0
-0 -0 -0 -0 -0 -0 -0 0 0 0 0 0 0 0 0 0 0 0 0 0 0 -0 -0 0 0 0 0 -0 -0 0 0 0 0 0 0 0 0 0 0 0 0 0 0
-0 -0 -0 -0 -0 0 0 0 0 0 0 0 0 0 0 0 0 0 0 0 0 0 0 0 0 0 0 0 0 0 0 0 0 0 0 0 0 0 0 0 0 0 0
0 -0 -0 -0 0 0 0 0 0 0 0 0 0 0 0 0 0 0 0 0 0 0 0 0 0 0 0 0 0 0 0 0 0 0 0 0 0 0 0 0 0 0 0
0 0 0 -0 -0 -0 -0 0 0 0 0 0 0 0 0 0 0 0 0 0 0 0 0 0 0 0 0 0 0 0 0 0 0 0 0 0 0 0 0 0 0 0 0
-0 0 0 0 0 0 0 0 0 0 0 0 0 0 0 0 0 0 0 0 0 0 0 0 0 0 0 0 0 0 0 0 0 0 0 0 0 0 0 0 0 0 0
-0 0 0 0 0 0 0 0 0 0 0 0 0 0 0 0 0 0 0 0 0 0 0 0 0 0 0 0 0 0 0 0 0 0 0 0 0 0 0 0 0 0 0
0 0 0 0 0 0 0 0 0 0 0 0 0 0 0 0 0 0 0 0 0 0 0 0 0 0 0 0 0 0 0 0 0 0 0 0 0 0 0 0 0 0 0
0 0 0 0 0 0 0 0 0 0 0 0 0 0 0 0 0 0 0 0 0 0 0 0 0 0 0 0 0 0 0 0 0 0 0 0 0 0 0 0 0 0 0
0 0 0 0 0 0 0 0 0 0 0 0 0 0 0 0 0 0 0 0 0 0 0 0 0 0 0 0 0 0 0 0 0 0 0 0 0 0 0 0 0 0 0
0 0 0 0 0 0 0 0 0 0 0 0 0 0 0 0 0 0 0 0 0 0 0 0 0 0 0 0 0 0 0 0 0 0 0 0 0 0 0 0 0 0 0
0 0 0 0 0 0 0 0 0 0 0 0 0 0 0 0 0 0 0 0 0 0 0 0 0 0 0 0 0 0 0 0 0 0 0 0 0 0 0 0 0 0 0
0 0 0 0 0 0 0 0 0 0 0 0 0 0 0 0 0 0 0 0 0 0 0 0 0 0 0 0 0 0 0 0 0 0 0 0 0 0 0 0 0 0 0
0 0 0 0 0 0 0 0 0 0 0 0 0 0 0 0 0 0 0 0 0 0 0 0 0 0 0 0 0 0 0 0 0 0 0 0 0 0 0 0 0 0 0
0 -0 0 0 0 0 0 0 0 0 0 0 -0 -0 -0 -0 -0 -0 0 0 0 0 0 0 0 0 0 0 0 0 0 0 0 0 0 0 0 0 0 0 0 0 0
0 0 0 0 0 0 0 0 0 0 0 -0 -0 -0 -0 -0 -0 -0 -0 -0 0 0 0 0 0 0 0 0 0 0 0 0 0 0 0 0 0 0 0 0 0 0 0
-0 0 0 0 -0 -0 -0 -0 0 0 0 0 -0 -0 -0 -0 -0 -0 -0 -0 -0 0 0 0 0 0 0 0 0 0 0 0 0 0 0 0 0 0 0 0 0 0 0
0 0 0 -0 -0 0 0 0 0 0 0 0 0 -0 0 0 -0 -0 0 0 0 0 0 0 0 0 0 0 0 0 0 0 0 0 0 0 0 0 0 0 0 0 0
0 0 0 0 0 0 0 0 0 0 0 0 0 0 0 0 0 0 0 0 0 0 0 0 0 0 0 0 0 0 0 0 0 0 0 0 0 0 0 0 0 0 0
0 0 0 0 0 0 0 0 0 0 0 0 0 0 0 0 0 0 0 0 0 0 0 0 0 0 0 0 0 0 0 0 0 0 0 0 0 0 0 0 0 0 0
0 0 0 0 0 0 0 0 0 0 0 0 0 0 0 0 0 0 0 0 0 0 0 0 0 0 0 0 0 0 0 0 0 0 0 0 0 0 0 0 0 0 0
0 0 0 0 0 0 0 0 0 0 0 0 0 0 0 0 0 0 0 0 0 0 0 0 0 0 0 0 0 0 0 0 0 0 0 0 0 0 0 0 0 0 0
Wind_Speed_500mb
18 24 20 11 6 2 9 6 14 17 15 16 18 16 15 12 16 16 20 19 16 15 13 8 10 16 24 24 22 23 30 29 29 22 25 21 16 13 10 4 2 4 7
25 23 20 8 3 1 7 16 9 13 18 19 21 20 20 22 23 24 27 27 24 21 20 18 19 15 14 16 17 17 21 28 25 32 26 21 10 9 6 7 9 8 7
36 27 21 12 7 5 8 13 11 11 19 15 17 24 22 22 25 25 24 25 26 26 27 24 19 12 11 12 11 8 9 11 13 25 28 20 16 15 13 11 8 7 7
36 29 27 19 13 14 8 9 12 10 16 14 17 21 24 26 28 29 29 29 29 28 25 22 19 17 19 15 11 8 8 8 10 14 16 20 17 18 13 10 9 7 3
35 34 30 20 13 12 8 9 13 11 11 10 14 16 19 24 27 25 25 26 27 27 28 26 25 25 22 18 14 15 14 12 14 14 14 16 19 15 12 10 9 6 4
39 30 27 19 15 11 7 9 13 12 10 9 11 12 15 20 22 21 22 23 26 29 31 31 28 25 23 19 16 16 14 12 9 12 10 10 10 8 9 8 6 6 5
37 30 27 22 22 18 14 12 11 12 11 10 11 10 11 13 16 17 17 17 19 21 25 23 25 28 24 22 19 15 12 9 9 12 13 11 9 7 8 10 9 8 7
40 32 38 32 20 13 19 15 12 10 12 9 10 10 9 8 12 16 15 11 11 12 14 15 17 19 21 21 18 14 15 14 16 14 14 13 7 7 9 9 9 12 13
37 25 29 35 24 23 25 13 4 7 11 10 12 12 11 7 6 8 10 14 12 11 12 10 10 12 13 16 16 12 13 17 20 16 14 13 9 3 4 3 2 6 4
40 37 36 40 37 29 23 13 13 9 9 11 8 13 14 12 7 3 1 8 13 17 18 11 7 8 8 9 9 9 7 20 22 15 13 10 12 19 11 7 12 14 14
45 49 39 42 38 33 19 22 26 11 10 10 8 10 14 14 11 7 6 2 7 11 15 17 8 6 6 4 5 4 12 12 11 6 0 3 11 21 18 5 8 5 14
45 38 36 38 34 30 32 29 17 16 10 10 17 14 17 16 14 11 5 3 3 5 11 13 8 6 3 5 7 8 5 5 6 7 1 3 14 12 6 13 15 9 4
22 24 23 22 26 28 30 25 16 22 15 14 16 11 14 17 16 15 11 6 6 7 6 5 8 10 11 9 5 1 6 6 7 7 2 7 11 9 6 2 2 3 4
26 26 23 25 29 29 26 18 24 23 16 20 13 11 13 14 12 10 9 7 7 4 9 17 20 20 20 20 23 16 7 4 1 1 4 4 5 7 10 8 5 5 6
22 22 23 25 25 25 24 25 23 20 20 15 12 11 12 10 10 10 10 7 10 18 20 16 11 7 4 6 7 7 11 13 12 13 13 12 8 6 9 11 10 6 3
22 24 26 27 27 22 20 20 17 14 12 9 8 9 9 8 6 6 5 7 12 18 14 8 7 7 6 5 4 5 6 8 11 20 25 20 17 15 17 10 10 8 8
21 30 33 29 26 24 23 17 14 14 10 8 5 2 3 4 5 8 8 8 14 16 12 10 9 1 9 15 18 19 20 24 29 30 25 15 13 13 13 10 10 14 10
39 41 43 44 43 43 40 34 30 24 22 19 14 9 7 7 6 7 9 13 19 17 8 9 8 7 13 18 19 19 22 26 29 25 17 19 18 16 14 15 16 13 15
43 44 41 39 36 35 35 34 36 35 39 38 37 28 21 18 13 11 17 24 19 10 6 10 11 12 11 17 18 18 21 25 26 20 10 20 20 18 17 16 20 15 17
29 32 31 32 28 28 28 26 24 26 24 21 26 27 21 19 23 22 20 14 10 8 3 6 9 5 9 14 17 18 22 25 25 30 20 16 11 16 22 22 21 25 25
25 24 30 31 27 20 18 14 9 6 8 7 7 11 14 10 9 11 12 9 7 5 5 7 16 17 21 23 20 22 29 30 32 28 23 24 20 24 25 25 25 27 29
24 28 27 24 26 19 10 4 9 11 14 12 9 8 4 6 3 5 5 8 10 11 17 18 17 24 22 23 25 23 24 27 28 26 20 19 24 29 30 30 30 30 32
31 23 30 29 26 20 15 10 3 1 3 4 5 14 15 8 2 3 5 8 16 18 19 16 18 19 14 18 25 25 26 26 26 28 30 29 33 34 36 39 38 37 41
21 27 31 28 24 19 15 9 11 8 8 9 4 5 15 12 7 16 14 30 23 15 17 21 25 28 30 37 34 35 36 43 45 43 45 47 46 44 47 46 44 43 40
18 38 39 30 24 14 12 7 6 9 8 5 8 12 18 17 17 17 16 19 28 28 26 24 29 33 34 32 37 41 39 41 41 42 53 56 57 57 57 54 51 55 45
31 28 24 21 15 16 18 16 24 17 13 12 12 17 20 13 10 9 13 17 22 23 23 24 26 26 27 31 38 41 44 45 44 51 57 59 59 58 59 74 67 52 58
Wind_Direction_500mb
188 172 153 146 119 70 20 75 75 63 50 46 54 53 67 63 66 78 81 79 72 81 93 113 128 140 177 193 212 220 224 227 213 208 210 210 229 255 258 241 195 216 208
188 177 155 150 107 32 8 96 91 83 65 55 53 62 75 79 80 79 79 82 85 86 87 91 100 118 169 200 212 218 226 229 219 208 200 196 218 193 181 146 137 150 159
186 181 171 176 168 152 119 129 110 80 63 55 59 65 75 85 85 81 76 77 77 79 83 86 93 110 130 144 154 177 197 210 206 206 191 210 187 170 173 189 198 237 262
185 190 182 181 174 165 132 115 121 82 66 62 74 73 76 79 82 80 78 76 77 76 74 77 85 92 97 106 125 138 137 152 157 188 183 180 184 181 197 209 221 225 208
193 194 192 187 181 177 149 154 113 106 85 81 84 82 80 80 79 84 80 76 71 70 72 72 74 72 75 82 83 98 102 112 136 157 175 191 196 196 214 226 216 180 134
192 190 200 199 201 199 185 175 139 129 120 114 107 96 88 82 81 72 68 65 70 74 71 75 76 78 77 79 87 93 93 88 122 143 170 183 173 197 216 202 204 215 211
195 199 221 221 209 202 194 198 173 152 141 130 132 120 99 91 81 65 57 52 57 60 57 64 65 70 72 68 72 81 88 87 102 122 141 146 157 175 172 182 205 213 200
208 217 228 235 220 221 208 188 196 189 154 150 158 150 137 123 96 85 68 61 57 57 48 56 60 65 64 61 56 68 78 83 84 87 104 120 118 127 144 150 162 166 151
214 223 242 250 247 235 222 205 166 225 191 181 175 175 174 176 145 105 59 49 68 70 67 62 48 47 49 53 49 58 84 96 94 93 95 94 85 81 244 186 276 231 183
217 229 216 230 255 244 240 190 193 213 210 215 187 190 193 205 213 192 83 52 63 66 62 60 40 11 16 27 35 48 111 122 118 112 107 82 42 27 352 250 273 286 227
224 228 227 239 241 244 222 199 196 202 211 243 238 231 212 213 223 237 225 350 21 38 28 21 17 353 322 317 343 94 147 145 148 159 256 52 13 352 347 317 258 249 229
226 232 226 224 224 210 210 196 213 192 216 230 244 239 219 213 207 222 242 256 248 316 347 355 12 27 64 127 138 160 211 249 255 230 128 60 354 351 51 72 84 99 121
211 205 199 182 176 179 195 210 195 199 212 253 227 241 210 210 213 208 205 213 216 271 321 56 79 83 100 99 95 114 49 54 121 156 161 352 352 3 341 343 118 107 67
192 182 168 164 166 173 185 209 201 194 229 218 235 241 213 206 201 186 181 199 211 178 123 113 101 91 91 79 65 42 347 298 315 1 334 330 320 334 348 319 298 309 297
174 163 157 154 160 167 178 186 199 207 207 232 236 213 202 196 181 169 151 129 150 145 138 130 123 112 120 80 61 35 18 5 344 337 316 304 306 309 296 325 298 322 275
160 150 144 138 142 156 164 171 183 192 203 202 189 183 189 194 196 191 172 151 170 177 150 138 134 102 59 73 56 338 311 320 324 328 321 306 297 297 303 266 291 278 292
135 130 130 133 131 131 127 121 141 143 146 138 136 159 200 217 201 191 186 177 168 162 136 118 143 104 337 334 330 329 324 321 322 324 326 314 305 286 289 289 290 299 289
120 116 115 113 110 104 97 93 90 95 99 96 93 100 111 120 137 151 156 154 149 152 141 176 204 260 332 352 358 357 347 334 320 309 284 308 303 288 300 292 297 302 308
127 122 118 113 108 98 90 94 92 94 90 83 77 80 92 97 104 128 145 135 133 100 201 240 258 262 300 331 332 334 337 336 341 331 293 339 278 274 287 317 295 303 304
138 130 127 128 128 118 103 100 98 94 95 87 79 75 85 95 96 103 137 152 158 126 90 346 334 295 288 305 318 323 323 331 330 335 306 288 313 280 290 293 307 305 297
141 139 139 147 149 128 114 109 114 89 63 76 103 86 74 81 126 144 169 178 165 178 232 279 323 328 349 347 324 315 327 338 337 328 319 280 280 292 293 293 294 294 299
157 156 163 175 168 153 119 56 263 270 268 288 273 231 192 98 101 229 228 226 245 238 234 257 287 325 330 343 342 336 336 340 339 333 305 287 290 299 290 279 283 286 288
170 158 161 157 157 170 195 199 180 237 14 36 179 243 236 183 99 245 267 302 303 281 250 247 261 279 277 300 301 299 296 299 303 303 303 305 301 298 294 293 293 295 299
174 173 170 178 187 199 199 234 271 283 302 314 286 207 211 217 288 310 274 253 273 271 259 255 253 258 262 296 290 281 281 292 291 290 293 287 282 280 284 289 295 301 303
180 174 175 179 189 200 218 203 276 283 280 248 260 201 195 218 258 251 239 233 232 243 251 257 271 278 283 289 294 296 295 301 290 284 280 283 281 274 274 274 281 291 289
157 166 180 191 204 220 229 259 241 243 237 210 233 198 190 205 233 236 220 226 237 249 263 273 275 275 282 289 294 294 290 286 280 282 277 282 276 275 274 273 266 270 282
Wind_Speed_850mb
18 24 20 11 6 2 9 6 14 17 15 16 18 16 15 12 16 16 20 19 16 15 13 8 10 16 24 24 22 23 30 29 29 22 25 21 16 13 10 4 2 4 7
25 23 20 8 3 1 7 16 9 13 18 19 21 20 20 22 23 24 27 27 24 21 20 18 19 15 14 16 17 17 21 28 25 32 26 21 10 9 6 7 9 8 7
36 27 21 12 7 5 8 13 11 11 19 15 17 24 22 22 25 25 24 25 26 26 27 24 19 12 11 12 11 8 9 11 13 25 28 20 16 15 13 11 8 7 7
36 29 27 19 13 14 8 9 12 10 16 14 17 21 24 26 28 29 29 29 29 28 25 22 19 17 19 15 11 8 8 8 10 14 16 20 17 18 13 10 9 7 3
35 34 30 20 13 12 8 9 13 11 11 10 14 16 19 24 27 25 25 26 27 27 28 26 25 25 22 18 14 15 14 12 14 14 14 16 19 15 12 10 9 6 4
39 30 27 19 15 11 7 9 13 12 10 9 11 12 15 20 22 21 22 23 26 29 31 31 28 25 23 19 16 16 14 12 9 12 10 10 10 8 9 8 6 6 5
37 30 27 22 22 18 14 12 11 12 11 10 11 10 11 13 16 17 17 17 19 21 25 23 25 28 24 22 19 15 12 9 9 12 13 11 9 7 8 10 9 8 7
40 32 38 32 20 13 19 15 12 10 12 9 10 10 9 8 12 16 15 11 11 12 14 15 17 19 21 21 18 14 15 14 16 14 14 13 7 7 9 9 9 12 13
37 25 29 35 24 23 25 13 4 7 11 10 12 12 11 7 6 8 10 14 12 11 12 10 10 12 13 16 16 12 13 17 20 16 14 13 9 3 4 3 2 6 4
40 37 36 40 37 29 23 13 13 9 9 11 8 13 14 12 7 3 1 8 13 17 18 11 7 8 8 9 9 9 7 20 22 15 13 10 12 19 11 7 12 14 14
45 49 39 42 38 33 19 22 26 11 10 10 8 10 14 14 11 7 6 2 7 11 15 17 8 6 6 4 5 4 12 12 11 6 0 3 11 21 18 5 8 5 14
45 38 36 38 34 30 32 29 17 16 10 10 17 14 17 16 14 11 5 3 3 5 11 13 8 6 3 5 7 8 5 5 6 7 1 3 14 12 6 13 15 9 4
22 24 23 22 26 28 30 25 16 22 15 14 16 11 14 17 16 15 11 6 6 7 6 5 8 10 11 9 5 1 6 6 7 7 2 7 11 9 6 2 2 3 4
26 26 23 25 29 29 26 18 24 23 16 20 13 11 13 14 12 10 9 7 7 4 9 17 20 20 20 20 23 16 7 4 1 1 4 4 5 7 10 8 5 5 6
22 22 23 25 25 25 24 25 23 20 20 15 12 11 12 10 10 10 10 7 10 18 20 16 11 7 4 6 7 7 11 13 12 13 13 12 8 6 9 11 10 6 3
22 24 26 27 27 22 20 20 17 14 12 9 8 9 9 8 6 6 5 7 12 18 14 8 7 7 6 5 4 5 6 8 11 20 25 20 17 15 17 10 10 8 8
21 30 33 29 26 24 23 17 14 14 10 8 5 2 3 4 5 8 8 8 14 16 12 10 9 1 9 15 18 19 20 24 29 30 25 15 13 13 13 10 10 14 10
39 41 43 44 43 43 40 34 30 24 22 19 14 9 7 7 6 7 9 13 19 17 8 9 8 7 13 18 19 19 22 26 29 25 17 19 18 16 14 15 16 13 15
43 44 41 39 36 35 35 34 36 35 39 38 37 28 21 18 13 11 17 24 19 10 6 10 11 12 11 17 18 18 21 25 26 20 10 20 20 18 17 16 20 15 17
29 32 31 32 28 28 28 26 24 26 24 21 26 27 21 19 23 22 20 14 10 8 3 6 9 5 9 14 17 18 22 25 25 30 20 16 11 16 22 22 21 25 25
25 24 30 31 27 20 18 14 9 6 8 7 7 11 14 10 9 11 12 9 7 5 5 7 16 17 21 23 20 22 29 30 32 28 23 24 20 24 25 25 25 27 29
24 28 27 24 26 19 10 4 9 11 14 12 9 8 4 6 3 5 5 8 10 11 17 18 17 24 22 23 25 23 24 27 28 26 20 19 24 29 30 30 30 30 32
31 23 30 29 26 20 15 10 3 1 3 4 5 14 15 8 2 3 5 8 16 18 19 16 18 19 14 18 25 25 26 26 26 28 30 29 33 34 36 39 38 37 41
21 27 31 28 24 19 15 9 11 8 8 9 4 5 15 12 7 16 14 30 23 15 17 21 25 28 30 37 34 35 36 43 45 43 45 47 46 44 47 46 44 43 40
18 38 39 30 24 14 12 7 6 9 8 5 8 12 18 17 17 17 16 19 28 28 26 24 29 33 34 32 37 41 39 41 41 42 53 56 57 57 57 54 51 55 45
31 28 24 21 15 16 18 16 24 17 13 12 12 17 20 13 10 9 13 17 22 23 23 24 26 26 27 31 38 41 44 45 44 51 57 59 59 58 59 74 67 52 58
Wind_Direction_850mb
188 172 153 146 119 70 20 75 75 63 50 46 54 53 67 63 66 78 81 79 72 81 93 113 128 140 177 193 212 220 224 227 213 208 210 210 229 255 258 241 195 216 208
188 177 155 150 107 32 8 96 91 83 65 55 53 62 75 79 80 79 79 82 85 86 87 91 100 118 169 200 212 218 226 229 219 208 200 196 218 193 181 146 137 150 159
186 181 171 176 168 152 119 129 110 80 63 55 59 65 75 85 85 81 76 77 77 79 83 86 93 110 130 144 154 177 197 210 206 206 191 210 187 170 173 189 198 237 262
185 190 182 181 174 165 132 115 121 82 66 62 74 73 76 79 82 80 78 76 77 76 74 77 85 92 97 106 125 138 137 152 157 188 183 180 184 181 197 209 221 225 208
193 194 192 187 181 177 149 154 113 106 85 81 84 82 80 80 79 84 80 76 71 70 72 72 74 72 75 82 83 98 102 112 136 157 175 191 196 196 214 226 216 180 134
192 190 200 199 201 199 185 175 139 129 120 114 107 96 88 82 81 72 68 65 70 74 71 75 76 78 77 79 87 93 93 88 122 143 170 183 173 197 216 202 204 215 211
195 199 221 221 209 202 194 198 173 152 141 130 132 120 99 91 81 65 57 52 57 60 57 64 65 70 72 68 72 81 88 87 102 122 141 146 157 175 172 182 205 213 200
208 217 228 235 220 221 208 188 196 189 154 150 158 150 137 123 96 85 68 61 57 57 48 56 60 65 64 61 56 68 78 83 84 87 104 120 118 127 144 150 162 166 151
214 223 242 250 247 235 222 205 166 225 191 181 175 175 174 176 145 105 59 49 68 70 67 62 48 47 49 53 49 58 84 96 94 93 95 94 85 81 244 186 276 231 183
217 229 216 230 255 244 240 190 193 213 210 215 187 190 193 205 213 192 83 52 63 66 62 60 40 11 16 27 35 48 111 122 118 112 107 82 42 27 352 250 273 286 227
224 228 227 239 241 244 222 199 196 202 211 243 238 231 212 213 223 237 225 350 21 38 28 21 17 353 322 317 343 94 147 145 148 159 256 52 13 352 347 317 258 249 229
226 232 226 224 224 210 210 196 213 192 216 230 244 239 219 213 207 222 242 256 248 316 347 355 12 27 64 127 138 160 211 249 255 230 128 60 354 351 51 72 84 99 121
211 205 199 182 176 179 195 210 195 199 212 253 227 241 210 210 213 208 205 213 216 271 321 56 79 83 100 99 95 114 49 54 121 156 161 352 352 3 341 343 118 107 67
192 182 168 164 166 173 185 209 201 194 229 218 235 241 213 206 201 186 181 199 211 178 123 113 101 91 91 79 65 42 347 298 315 1 334 330 320 334 348 319 298 309 297
174 163 157 154 160 167 178 186 199 207 207 232 236 213 202 196 181 169 151 129 150 145 138 130 123 112 120 80 61 35 18 5 344 337 316 304 306 309 296 325 298 322 275
160 150 144 138 142 156 164 171 183 192 203 202 189 183 189 194 196 191 172 151 170 177 150 138 134 102 59 73 56 338 311 320 324 328 321 306 297 297 303 266 291 278 292
135 130 130 133 131 131 127 121 141 143 146 138 136 159 200 217 201 191 186 177 168 162 136 118 143 104 337 334 330 329 324 321 322 324 326 314 305 286 289 289 290 299 289
120 116 115 113 110 104 97 93 90 95 99 96 93 100 111 120 137 151 156 154 149 152 141 176 204 260 332 352 358 357 347 334 320 309 284 308 303 288 300 292 297 302 308
127 122 118 113 108 98 90 94 92 94 90 83 77 80 92 97 104 128 145 135 133 100 201 240 258 262 300 331 332 334 337 336 341 331 293 339 278 274 287 317 295 303 304
138 130 127 128 128 118 103 100 98 94 95 87 79 75 85 95 96 103 137 152 158 126 90 346 334 295 288 305 318 323 323 331 330 335 306 288 313 280 290 293 307 305 297
141 139 139 147 149 128 114 109 114 89 63 76 103 86 74 81 126 144 169 178 165 178 232 279 323 328 349 347 324 315 327 338 337 328 319 280 280 292 293 293 294 294 299
157 156 163 175 168 153 119 56 263 270 268 288 273 231 192 98 101 229 228 226 245 238 234 257 287 325 330 343 342 336 336 340 339 333 305 287 290 299 290 279 283 286 288
170 158 161 157 157 170 195 199 180 237 14 36 179 243 236 183 99 245 267 302 303 281 250 247 261 279 277 300 301 299 296 299 303 303 303 305 301 298 294 293 293 295 299
174 173 170 178 187 199 199 234 271 283 302 314 286 207 211 217 288 310 274 253 273 271 259 255 253 258 262 296 290 281 281 292 291 290 293 287 282 280 284 289 295 301 303
180 174 175 179 189 200 218 203 276 283 280 248 260 201 195 218 258 251 239 233 232 243 251 257 271 278 283 289 294 296 295 301 290 284 280 283 281 274 274 274 281 291 289
157 166 180 191 204 220 229 259 241 243 237 210 233 198 190 205 233 236 220 226 237 249 263 273 275 275 282 289 294 294 290 286 280 282 277 282 276 275 274 273 266 270 282